Location: Lone Pine Community Mobile Home Park
(42.7367°N, 73.8567°W)
Time: 05:38:20
(UTC+00:00)

Lacrosse 5 - Pass Details

Date: 29 October 2020
Orbit: 716 x 723 km, 57.0° (Epoch: 06 November)

Event Time Altitude Azimuth Distance (km) Brightness Sun altitude
Rises 23:09:19 0° 308° (NW) 3,123 5.9 -14.8°
Reaches altitude 10° 23:12:32 10° 329° (NNW) 2,203 4.7 -15.4°
Maximum altitude 23:15:48 17° 9° (N) 1,778 3.8 -16.0°
Enters shadow 23:17:47 14° 36° (NE) 1,946 3.7 -16.4°
